DECAYED

STARLINK-2244, 48588 (Decayed)

Orbit data source: Space-Track

STARLINK-2244, 48588 was a payload satellite owned by SpaceX/Seattle (US) in LEO that was launched on Sat, 15 May 2021 UTC via an FALCON 9 launch vehicle from the Air Force Eastern Test Range (AFETR). Payload-class satellites include a variety of spacecraft equipped with specific instruments for various scientific and technological missions. These include communications satellites like Starlink; space stations such as the ISS; scientific satellites like the Hubble; Earth observation satellites from companies like Planet Labs, Umbra, and HawkEye 360; GPS; miniature CubeSats for education and research; and military/defense satellites.

Not visible in the next 10 days
Identifier
48588, 2021-041AM
Orbit
Decayed
Last TLE update
4 months ago
Origin
Manufacturer
SpaceX/Seattle
Mission
Decayed Commercial Communications
Bus & Motor
STARLINK, Unknown motor
Mass
260 kg wet, ~248 kg dry
Launch date (UTC)
2021-05-15 (4 years ago)
Launch vehicle
FALCON 9
Launch site
Air Force Eastern Test Range (AFETR)
Object type
Payload
Rocket body
Debris
Shape & HBR
Box + 1 Pan, 8.86 m
Radar Cross Section
13.562 m², Large (>1 m²)

Expand to show TLE details & history

TLE from 4 months ago
0 STARLINK-2244
1 48588U 21041AM  25005.20139208  .73812982  12722-4  49433-3 0  9992
2 48588  53.0169 236.4786 0002384 119.5242 342.6857 16.53336963201324
Epoch: 2025-01-05T04:50Z
Definitive object data (Epoch: 2025-01-05T04:50:00.275Z)
Latitude
51.48896°
Longitude
168.73005°
Altitude
135.169 km
Speed
7.832 km/s
True Right ascension
23h 05m 05s
True Declination
51° 18' 19"
Sunlit
Object was in daylight at TLE epoch
Visualization observer readout
Visualization observer readout
Orbital elements
Apogee altitude
132.409 km
Perigee altitude
129.305 km
Semi-major axis
6,508.994 km
Eccentricity
0.0002384
Inclination
53.0169°
RAAN
236.4786°
Arg. of periapsis
119.5242°
True anomaly
342.67757°
Mean anomaly
342.6857°
Eccentric anomaly
342.68163°
Mean motion
4.13307 °/min
BSTAR
0.00049433
Orbital period
87.1 mins
Loading maneuver chart data...
Loading SW <> Apogee altitude chart data...
Loading historical data...
Loading historical data...
Loading historical data...
Loading historical data...
Loading historical data...
Loading historical data...
Loading historical data...

STARLINK-2244 Visibility forecast

Observer location: undefined°, undefined°

This satellite is decayed
Span
Click to sort rows by Start time (UTC) header in descending order
Start Az.
Max El. time (UTC)
Max El. Az.
Max El.
End time (UTC)
End Az.
|